EDT,Max TemperatureF,Mean TemperatureF,Min TemperatureF,Max Dew PointF,MeanDew PointF,Min DewpointF,Max Humidity, Mean Humidity, Min Humidity, Max Sea Level PressureIn, Mean Sea Level PressureIn, Min Sea Level PressureIn, Max VisibilityMiles, Mean VisibilityMiles, Min VisibilityMiles, Max Wind SpeedMPH, Mean Wind SpeedMPH, Max Gust SpeedMPH,PrecipitationIn, CloudCover, Events, WindDirDegrees
2013-10-1,82,72,61,64,62,59,97,76,54,30.09,30.05,30.01,10,9,6,13,5,21,0.00,3,,192
2013-10-2,81,74,66,71,68,64,93,81,69,30.13,30.08,30.04,10,7,4,14,4,17,0.02,6,Rain,169
2013-10-3,84,77,69,70,68,64,100,76,51,30.10,30.05,30.00,10,9,6,15,6,18,0.02,5,Rain,169
2013-10-4,86,77,67,70,67,64,93,74,55,30.09,30.05,30.01,10,8,1,36,6,43,0.42,5,Rain,165
2013-10-5,75,72,68,72,68,66,97,88,79,30.06,30.00,29.94,10,4,0,16,5,18,5.91,8,Fog-Rain-Thunderstorm,96
2013-10-6,73,63,53,67,63,47,100,86,72,29.96,29.85,29.80,10,7,2,22,9,25,1.20,8,Rain-Thunderstorm,193
2013-10-7,66,58,49,48,45,42,86,66,45,30.17,30.02,29.91,10,10,10,16,6,21,0.00,2,,272
2013-10-8,71,59,47,48,46,43,93,65,37,30.26,30.20,30.16,10,10,10,15,6,20,0.00,0,,59
2013-10-9,77,63,49,54,49,45,83,63,43,30.22,30.17,30.14,10,10,8,8,2,13,0.00,0,,16
2013-10-10,76,65,53,54,50,47,89,64,38,30.19,30.13,30.06,10,10,9,9,1,16,0.00,1,,17
2013-10-11,79,66,52,56,52,47,89,63,37,30.11,30.06,30.02,10,9,7,6,2,8,0.00,0,,245
2013-10-12,81,67,53,61,55,51,93,66,39,30.12,30.07,30.03,10,9,6,13,2,20,0.00,2,,212
2013-10-13,78,68,58,61,56,44,90,69,48,30.29,30.22,30.12,10,9,7,15,7,17,T,4,Rain,353
2013-10-14,75,62,49,52,48,43,80,62,44,30.32,30.24,30.16,10,10,10,10,6,15,0.00,3,,26
2013-10-15,73,65,57,62,59,52,90,77,64,30.14,30.04,29.95,10,9,5,15,6,21,T,8,Rain,192
2013-10-16,68,61,53,63,57,50,93,80,67,29.99,29.95,29.91,10,10,2,14,6,17,0.01,7,Rain,248
2013-10-17,63,55,47,49,46,44,86,71,55,30.02,29.96,29.93,10,9,2,15,6,21,0.05,5,Rain,297
2013-10-18,68,56,44,48,45,42,93,68,42,30.07,30.01,29.96,10,10,7,14,4,18,0.00,2,,173
2013-10-19,55,48,41,50,45,38,96,75,54,30.05,29.93,29.86,10,7,2,18,5,23,0.22,6,Rain,266
2013-10-20,63,51,38,42,39,37,92,66,39,30.09,30.04,30.01,10,10,10,15,7,20,0.00,0,,163
2013-10-21,70,56,42,47,41,38,89,61,33,30.05,29.99,29.93,10,10,10,18,8,24,0.00,3,,200
2013-10-22,58,49,39,46,35,27,92,62,32,30.08,29.98,29.83,10,10,6,17,4,22,0.01,6,Rain,351
2013-10-23,52,46,39,45,36,30,80,63,46,30.10,29.95,29.78,10,10,10,24,12,31,T,7,,279
2013-10-24,48,41,34,36,31,24,70,61,51,30.34,30.19,30.10,10,10,9,24,8,30,T,8,Rain,277
2013-10-25,51,41,30,28,26,23,85,59,33,30.50,30.41,30.33,10,10,8,10,3,20,0.00,1,,227
2013-10-26,58,45,31,39,31,26,78,59,40,30.31,30.15,29.99,10,10,9,21,9,28,0.00,3,,198
2013-10-27,63,50,36,39,35,30,92,61,30,30.13,30.09,30.05,10,9,5,8,1,13,0.00,2,,253
2013-10-28,68,55,41,41,38,34,89,60,31,30.29,30.19,30.10,10,10,7,7,1,13,0.00,3,,350
2013-10-29,58,50,42,56,48,39,100,86,71,30.35,30.28,30.17,10,5,0,8,2,10,0.10,7,Fog-Rain,95
2013-10-30,70,64,57,64,59,55,100,84,68,30.17,30.12,30.02,10,5,1,15,5,17,1.49,8,Rain,150
2013-10-31,70,65,59,65,59,54,93,77,61,30.01,29.70,29.44,10,8,2,38,16,49,0.49,8,Rain,188